AYMH

Mount Hagen Kagamuga Airport

Airport
ICAO code
AYMH
IATA Code
HGU
Summary
ICAO Region
APAC
ICAO Territory
Location

, Western Highlands

Serving
Mount Hagen
Elevation
5388 ft
Coordinates
5° 49' 36" S , 144° 17' 45" E
Metar
AYMH 222200Z VRB04KT 9999 SCT000 17/16 Q1022=

Runways

Designator Length Width Surface Rops
8/26 1097 18 ASP No/No
12/30 2190 30 ASP No/No

Airport map

Aerial View

SKYbrary Partners:

Safety knowledge contributed by: